Hourly Data Report for June 24, 2021

WINNIPEG THE FORKS
MANITOBA
Current Station Operator: ECCC - MSC

49°53'18.008" N
97°07'46.007" W
230.00 m
5023262
71579
XWN

Download Data

Hourly Data (June 2021)
Hourly Data Report for June 24, 2021
TIME
LST
Temp Definition
°C
Dew Point Definition
°C
Rel Hum Definition
%
Precip. Amount Definition
mm

Wind Dir Definition
10's deg

Wind Spd Definition
km/h
Visibility Definition
km
Stn Press Definition
kPa
Hmdx Definition


Wind Chill Definition


Weather Definition


00:00 18.5 13.1 71 0.0   0   97.89     LegendNANA
01:00 17.2 13.0 76 0.0   0   97.91     LegendNANA
02:00 16.6 13.1 80 0.0 23 1   97.92     LegendNANA
03:00 18.0 12.7 71 0.0 27 1   98.00     LegendNANA
04:00 17.2 12.0 72 0.0 28 5   98.06     LegendNANA
05:00 17.6 12.1 70 0.0 29 3   98.06     LegendNANA
06:00 17.2 12.1 72 0.0 28 3   98.17     LegendNANA
07:00 19.1 11.6 62 0.0 28 2   98.21     LegendNANA
08:00 21.1 11.5 54 0.0 33 4   98.26     LegendNANA
09:00 22.0 9.4 45 0.0 32 7   98.30     LegendNANA
10:00 23.7 8.7 39 0.0 34 6   98.31     LegendNANA
11:00 24.5 8.2 35 0.0 31 7   98.32 25   LegendNANA
12:00 24.3 6.2 31 0.0 32 8   98.34     LegendNANA
13:00 25.5 5.6 28 0.0 31 9   98.37 25   LegendNANA
14:00 25.4 3.1 24 0.0 31 10   98.36     LegendNANA
15:00 25.6 5.4 27 0.0 33 13   98.34 25   LegendNANA
16:00 25.0 5.8 29 0.0 32 11   98.33 25   LegendNANA
17:00 25.9 6.2 28 0.0 32 7   98.32 26   LegendNANA
18:00 24.8 5.8 29 0.0 31 8   98.33     LegendNANA
19:00 24.5 6.1 31 0.0 33 6   98.37     LegendNANA
20:00 23.1 5.9 33 0.0 31 4   98.40     LegendNANA
21:00 22.9 6.6 35 0.0 28 4   98.44     LegendNANA
22:00 22.2 7.4 39 0.0 27 2   98.45     LegendNANA
23:00 21.3 8.3 43 0.0 22 4   98.49     LegendNANA

Notes on Data Quality.

Legend

  • E = Estimated
  • M = Missing
  • NA = Not Available*
  • [empty] = Indicates an unobserved value
Date modified: